JAISAT-1
1 44419U 19038F 23327.54114669 .00050666 00000-0 11926-2 0 9990
2 44419 97.6832 315.8552 0015394 90.1909 270.1101 15.41672367242987
Taurus 1
1 44530U 19059C 23327.79256981 .00007341 00000-0 18270-2 0 9999
2 44530 98.5637 78.3277 0011679 325.0002 35.0424 14.51963925221789
Duchifat 3
1 44854U 19089C 23327.80125374 .00013377 00000-0 81504-3 0 9991
2 44854 36.9596 215.0725 0007757 212.5797 147.4469 15.09767199216936
OPS-SAT
1 44878U 19092F 23327.48246954 .00057647 00000-0 12163-2 0 9995
2 44878 97.4627 159.3309 0006534 283.9577 76.0944 15.45003408218299
TO-108
1 44881U 19093C 23327.76060090 .00001500 00000-0 19087-3 0 9996
2 44881 97.8500 43.4333 0013220 278.2850 81.6864 14.83002185212444
FloripaSat 1
1 44885U 19093G 23327.80994441 .00006102 00000-0 67899-3 0 9998
2 44885 97.8591 47.2781 0012105 276.0695 83.9141 14.87441085212668
RS-44
1 44909U 19096E 23327.79135957 -.00000007 00000-0 -75118-4 0 9999
2 44909 82.5225 241.8791 0217446 173.5148 186.8851 12.79723855182622
BY70-2
1 45857U 20042B 23327.85123457 .00042348 00000-0 34257-2 0 9993
2 45857 97.9179 49.1336 0007774 191.3984 168.7063 14.99595294183380
UPMSat 2
1 46276U 20061E 23327.13392763 .00017837 00000-0 67312-3 0 9993
2 46276 97.3289 31.5905 0002532 112.5230 247.6277 15.27084938178518
AmicalSat
1 46287U 20061R 23327.13732400 .00027659 00000-0 10933-2 0 9990
2 46287 97.3820 31.0183 0000944 212.0229 148.0952 15.25453124177892
SALSAT
1 46495U 20068K 23327.44000834 .00008173 00000-0 50966-3 0 9992
2 46495 97.7890 277.4854 0013259 303.8470 56.1496 15.09732193173082
CAPE 3
1 47309U 21002A 23327.83105233 .00111141 00000-0 12802-2 0 9994
2 47309 60.6670 157.0167 0021323 37.3331 322.9251 15.61041911159017
AO-109
1 47311U 21002C 23327.82644179 .00062558 00000-0 99887-3 0 9999
2 47311 60.6742 159.7115 0021967 37.1887 323.0731 15.52498099158950
ExoCube 2
1 47319U 21002L 23327.54470780 .00061304 00000-0 10305-2 0 9996
2 47319 60.6722 163.8908 0022983 36.5530 323.7133 15.51045213158812
UVSQ-SAT
1 47438U 21006AB 23327.10712003 .00034193 00000-0 11354-2 0 9992
2 47438 97.3633 22.4040 0007357 233.1658 126.8909 15.31115729156902
YUSAT 1
1 47439U 21006AC 23327.61710334 .00036319 00000-0 10279-2 0 9991
2 47439 97.3641 24.5231 0006695 224.5353 135.5354 15.36188265157088
SOMP 2b
1 47445U 21006AJ 23327.12145615 .00030220 00000-0 10393-2 0 9990
2 47445 97.3600 21.3878 0007229 239.8016 120.2509 15.30005089156865
IDEASSat
1 47458U 21006AX 23327.71151604 .00023718 00000-0 84472-3 0 9998
2 47458 97.3700 22.7615 0006696 236.5201 123.5400 15.28917361156926
CubeSX-Sirius-HSE
1 47951U 21022V 23327.82698944 .00016686 00000-0 83049-3 0 9994
2 47951 97.4793 222.8090 0018216 135.0193 225.2520 15.17525634147201
CubeSX-HSE
1 47952U 21022W 23327.79285159 .00017757 00000-0 88154-3 0 9993
2 47952 97.4793 222.8380 0018080 134.6528 225.6183 15.17604581147208
KSU-Cubesat
1 47954U 21022Y 23327.66468617 .00020524 00000-0 97818-3 0 9996
2 47954 97.4800 223.3626 0017327 132.2935 227.9771 15.19006605146940
GRBAlpha
1 47959U 21022AD 23327.83640338 .00016970 00000-0 84047-3 0 9992
2 47959 97.4797 222.9918 0017992 134.4974 225.7734 15.17698375146038
Orbicraft-Zorkiy
1 47960U 21022AE 23327.83572988 .00017760 00000-0 85229-3 0 9990
2 47960 97.4833 223.6935 0017602 132.6274 227.6447 15.18793417146754
STECCO
1 47962U 21022AG 23327.82338608 .00041431 00000-0 14578-2 0 9990
2 47962 97.4803 227.8600 0012750 109.6079 250.6538 15.29137982146358
MO-110
1 47964U 21022AJ 23327.69946571 .00042385 00000-0 14288-2 0 9998
2 47964 97.4821 228.6164 0014538 106.5659 253.7179 15.30503235146388
FEES
1 48082U 21022AL 23327.27690646 .00156524 00000-0 28333-2 0 9990
2 48082 97.4770 231.9657 0012040 87.3022 272.9607 15.49011839146274
TUBIN
1 48900U 21059X 23327.81705376 .00014743 00000-0 62573-3 0 9997
2 48900 97.6197 103.0419 0009183 88.1004 272.1284 15.23158353133449
IT-SPINS
1 49017U 21013G 23327.50288064 .00109024 00000-0 12564-2 0 9994
2 49017 51.5865 8.9404 0001230 354.1139 5.9839 15.61110230134417
LEDSAT
1 49069U 21073D 23327.67837034 .00015516 00000-0 76519-3 0 9995
2 49069 97.4665 36.0677 0020923 287.9267 71.9685 15.17818458125061
CUTE
1 49263U 21088D 23327.16315772 .00017731 00000-0 10178-2 0 9990
2 49263 97.5272 30.4385 0017823 79.1471 281.1765 15.12459994118280
TeikyoSat 4
1 49396U 21102B 23327.08850332 .00004094 00000-0 30770-3 0 9990
2 49396 97.4923 14.0531 0012981 260.5841 99.3918 15.03049339111636
Z-Sat
1 49399U 21102E 23327.87197563 .00005483 00000-0 37663-3 0 9991
2 49399 97.4653 16.0169 0019773 242.4774 117.4444 15.06199849111910
KOSEN 1
1 49402U 21102H 23327.67208297 .00007445 00000-0 48040-3 0 9992
2 49402 97.4579 16.6545 0018768 228.7600 131.2013 15.08416065111981
HO-113
1 50466U 21131B 23327.81189506 .00000880 00000-0 29817-3 0 9990
2 50466 98.5436 48.8107 0004627 36.9433 323.2072 14.39198690100317
Tevel-3
1 50988U 22002E 23327.79774496 .00043131 00000-0 12914-2 0 9997
2 50988 97.4147 34.4144 0006462 37.7444 322.4251 15.34378857103151
Tevel-8
1 50989U 22002F 23327.82421247 .00040968 00000-0 12304-2 0 9993
2 50989 97.4164 34.5171 0006396 36.2141 323.9534 15.34294476103150
Tevel-5
1 50998U 22002Q 23327.83252153 .00042156 00000-0 12102-2 0 9999
2 50998 97.4139 35.0675 0007168 29.3860 330.7786 15.35705761103202
Tevel-6
1 50999U 22002R 23327.83157200 .00041992 00000-0 12061-2 0 9998
2 50999 97.4138 35.0564 0007175 28.9782 331.1858 15.35691435103202
Tevel-1
1 51013U 22002AF 23327.81343339 .00042006 00000-0 12608-2 0 9998
2 51013 97.4138 34.3423 0006252 37.5526 322.6152 15.34308818103158
NO-116
1 51031U 22002AZ 23327.71751907 .00142146 00000-0 20616-2 0 9995
2 51031 97.4239 40.4648 0004425 355.4391 4.6822 15.55335370103471
IRIS-A
1 51044U 22002BN 23327.13012768 .00019872 00000-0 83391-3 0 9999
2 51044 97.4166 30.3920 0008329 51.1732 309.0247 15.23479588102827
Tevel-7
1 51062U 22002CG 23327.82229362 .00041689 00000-0 12502-2 0 9991
2 51062 97.4157 34.4851 0006368 36.1478 324.0194 15.34337882103153
Tevel-4
1 51063U 22002CH 23327.83604354 .00040409 00000-0 12162-2 0 9992
2 51063 97.4156 34.4603 0006340 36.6375 323.5300 15.34230689103159
Tevel-2
1 51069U 22002CP 23327.79869808 .00043051 00000-0 12884-2 0 9997
2 51069 97.4144 34.3829 0006407 37.5550 322.6139 15.34394451103158
DELFI-PQ
1 51074U 22002CU 23327.44630391 .00258525 00000-0 24974-2 0 9995
2 51074 97.4351 44.1675 0003462 12.1480 347.9862 15.65631108103612
SO-115
1 51080U 22002DA 23327.14079587 .00061781 00000-0 15235-2 0 9999
2 51080 97.4435 39.2154 0008258 57.9970 302.2078 15.40298704103255
SO-114
1 51081U 22002DB 23327.42539814 .00066044 00000-0 16014-2 0 9998
2 51081 97.4432 39.5256 0008310 56.7852 303.4190 15.40791070103302
OreSat0
1 52017U 22026K 23327.80645992 .00032660 00000-0 10307-2 0 9997
2 52017 97.5090 331.4880 0015940 237.0313 122.9397 15.32663727 93920
Planetum 1
1 52738U 22057G 23327.28142995 .00030758 00000-0 11742-2 0 9998
2 52738 97.5511 83.9537 0006670 151.7597 208.4004 15.26574810 82876
